Quincy, IL

9:45 PM CDT on August 18, 2017 (GMT -0500)
Quincy Regional-Baldwin

Weather History for KUIN - April, 2012

Change the Weather History Date:

Wednesday, April 4, 2012

  Actual Average Record
Temperature  
Mean Temperature 54 °F 49 °F  
Max Temperature 61 °F 59 °F 86 °F (1942)
Min Temperature 48 °F 39 °F 20 °F (2002)
Degree Days  
Heating Degree Days 10 16  
Month to date heating degree days 66  
Since 1 July heating degree days 5126  
Cooling Degree Days 0 0  
Month to date cooling degree days 0  
Year to date cooling degree days 2  
Growing Degree Days 4 (Base 50)    
Moisture  
Dew Point 46 °F    
Average Humidity 73    
Maximum Humidity 83    
Minimum Humidity 55    
Precipitation  
Precipitation 0.20 in 0.11 in 1.77 in (1947)
Month to date precipitation 0.43  
Year to date precipitation 6.29  
Sea Level Pressure  
Sea Level Pressure 29.84 in    
Wind  
Wind Speed 12 mph (NE)    
Max Wind Speed 22 mph    
Max Gust Speed 26 mph    
Visibility 9 miles    
Events Rain    
T = Trace of Precipitation, MM = Missing Value Source: NWS Daily Summary

Daily Weather History Graph

Daily Weather History Graph

Search for Another Location

Airport or City:

Trip Planner

Search our weather history database for the weather conditions in past years. The results will help you decide how hot, cold, wet, or windy it might be!

Date:

Astronomy

Apr. 04, 2012 Rise Set
Actual Time 6:43 AM CDT 7:32 PM CDT
Civil Twilight 6:15 AM CDT 8:00 PM CDT
Nautical Twilight 5:43 AM CDT 8:32 PM CDT
Astronomical Twilight 5:09 AM CDT 9:06 PM CDT
Moon 5:26 PM CDT (4/4) 5:05 AM CDT (4/4)
Length of Visible Light 13h 44m
Length of Day
12h 49m
Waxing Gibbous, 94% of the Moon is Illuminated
Apr 4
Waxing Gibbous
Apr 6
Full
Apr 13
Last Quarter
Apr 21
New
Apr 29
First Quarter

Hourly Weather History & Observations

Time (CDT) Temp. Dew Point Humidity Pressure Visibility Wind Dir Wind Speed Gust Speed Precip Events Conditions
12:54 AM 61.0 °F 54.0 °F 78% 29.83 in 10.0 mi North 9.2 mph - N/A   Overcast
1:54 AM 59.0 °F 48.9 °F 69% 29.83 in 9.0 mi NE 19.6 mph - N/A   Overcast
2:15 AM 57.2 °F 48.2 °F 72% 29.84 in 9.0 mi ENE 15.0 mph - N/A   Mostly Cloudy
2:54 AM 57.0 °F 46.9 °F 69% 29.83 in 10.0 mi NE 13.8 mph - N/A   Mostly Cloudy
3:54 AM 55.0 °F 46.0 °F 72% 29.84 in 9.0 mi ENE 12.7 mph - N/A   Clear
4:54 AM 52.0 °F 45.0 °F 77% 29.83 in 9.0 mi NNE 10.4 mph - N/A   Mostly Cloudy
5:54 AM 50.0 °F 42.1 °F 74% 29.84 in 10.0 mi NE 10.4 mph - N/A   Mostly Cloudy
6:54 AM 48.9 °F 41.0 °F 74% 29.85 in 10.0 mi NE 13.8 mph - N/A   Partly Cloudy
7:54 AM 50.0 °F 41.0 °F 71% 29.85 in 10.0 mi NE 11.5 mph - N/A   Overcast
8:54 AM 52.0 °F 41.0 °F 66% 29.86 in 10.0 mi ENE 12.7 mph - N/A   Overcast
9:45 AM 53.6 °F 42.8 °F 67% 29.88 in 10.0 mi ENE 9.2 mph - N/A   Overcast
9:54 AM 53.6 °F 42.8 °F 67% 29.88 in 10.0 mi NE 10.4 mph - N/A   Overcast
10:54 AM 55.0 °F 45.0 °F 69% 29.87 in 10.0 mi NE 12.7 mph - N/A   Overcast
11:34 AM 57.2 °F 46.4 °F 67% 29.87 in 10.0 mi NE 13.8 mph - N/A   Overcast
11:54 AM 57.9 °F 46.0 °F 65% 29.87 in 10.0 mi ENE 13.8 mph - N/A   Overcast
12:42 PM 57.2 °F 48.2 °F 72% 29.87 in 8.0 mi ENE 12.7 mph - 0.00 in Rain Light Rain
12:54 PM 55.9 °F 48.0 °F 75% 29.87 in 10.0 mi ENE 9.2 mph - 0.00 in Rain Light Rain
1:54 PM 57.0 °F 48.9 °F 74% 29.84 in 9.0 mi ENE 8.1 mph - 0.00 in Rain Light Rain
2:27 PM 57.2 °F 50.0 °F 77% 29.83 in 7.0 mi NE 10.4 mph - 0.00 in Rain Light Rain
2:54 PM 57.9 °F 50.0 °F 75% 29.82 in 10.0 mi ENE 8.1 mph - 0.00 in   Overcast
3:54 PM 57.0 °F 52.0 °F 83% 29.80 in 9.0 mi ENE 9.2 mph - 0.01 in   Overcast
4:54 PM 59.0 °F 53.1 °F 81% 29.78 in 10.0 mi ENE 9.2 mph - 0.00 in Rain Light Rain
5:54 PM 60.1 °F 51.1 °F 72% 29.78 in 10.0 mi NE 6.9 mph - 0.00 in   Overcast
6:54 PM 57.9 °F 51.1 °F 78% 29.79 in 10.0 mi North 4.6 mph - N/A   Overcast
7:54 PM 57.0 °F 51.1 °F 81% 29.78 in 10.0 mi North 6.9 mph - 0.00 in Rain Light Rain
8:54 PM 55.0 °F 39.0 °F 55% 29.81 in 10.0 mi ENE 21.9 mph 26.5 mph 0.00 in   Overcast
9:54 PM 51.1 °F 44.1 °F 77% 29.82 in 7.0 mi ENE 11.5 mph - 0.01 in Rain Light Rain
10:54 PM 48.9 °F 41.0 °F 74% 29.83 in 8.0 mi ENE 16.1 mph - 0.11 in Rain Light Rain
11:54 PM 48.0 °F 42.1 °F 80% 29.84 in 6.0 mi ENE 9.2 mph - 0.07 in Rain Rain